Weather History for KSEZ - April, 2014

Change the Weather History Date:

Wednesday, April 23, 2014

  Actual Average Record
Temperature  
Mean Temperature 62 °F -  
Max Temperature 71 °F 75 °F 91 °F (2012)
Min Temperature 53 °F 41 °F 48 °F (2015)
Degree Days  
Heating Degree Days 3    
Growing Degree Days 12 (Base 50)    
Moisture  
Dew Point 17 °F    
Average Humidity 19    
Maximum Humidity 31    
Minimum Humidity 10    
Precipitation  
Precipitation 0.00 in - - ()
Sea Level Pressure  
Sea Level Pressure 29.91 in    
Wind  
Wind Speed 8 mph (West)    
Max Wind Speed 20 mph    
Max Gust Speed 31 mph    
Visibility 10 miles    
Events      
Averages and records for this station are not official NWS values.
T = Trace of Precipitation, MM = Missing Value Source: NWS Daily Summary

Daily Weather History Graph

Daily Weather History Graph

Search for Another Location

Airport or City:

Trip Planner

Search our weather history database for the weather conditions in past years. The results will help you decide how hot, cold, wet, or windy it might be!

Date:

Astronomy

Apr. 23, 2014 Rise Set
Actual Time 5:45 AM MST 7:05 PM MST
Civil Twilight 5:18 AM MST 7:32 PM MST
Nautical Twilight 4:47 AM MST 8:04 PM MST
Astronomical Twilight 4:14 AM MST 8:37 PM MST
Moon 2:05 AM MST (4/23) 1:32 PM MST (4/23)
Length of Visible Light 14h 13m
Length of Day
13h 20m
Waning Crescent, 34% of the Moon is Illuminated
Apr 23
Waning Crescent
Apr 28
New
May 6
First Quarter
May 14
Full
May 21
Last Quarter

Hourly Weather History & Observations

Time (MST) Temp. Dew Point Humidity Pressure Visibility Wind Dir Wind Speed Gust Speed Precip Events Conditions
12:15 AM 60.8 °F 23.0 °F 23% 29.87 in 10.0 mi SSW 9.2 mph - N/A   Clear
12:35 AM 60.8 °F 23.0 °F 23% 29.87 in 10.0 mi WNW 8.1 mph - N/A   Scattered Clouds
12:55 AM 60.8 °F 21.2 °F 22% 29.87 in 10.0 mi WNW 9.2 mph - N/A   Scattered Clouds
1:15 AM 59.0 °F 19.4 °F 22% 29.87 in 10.0 mi West 6.9 mph - N/A   Scattered Clouds
1:35 AM 59.0 °F 19.4 °F 22% 29.87 in 10.0 mi WSW 5.8 mph - N/A   Clear
1:55 AM 59.0 °F 21.2 °F 23% 29.87 in 10.0 mi Calm Calm - N/A   Clear
2:15 AM 57.2 °F 21.2 °F 25% 29.87 in 10.0 mi WNW 8.1 mph - N/A   Clear
2:35 AM 57.2 °F 23.0 °F 27% 29.86 in 10.0 mi WNW 9.2 mph - N/A   Clear
2:55 AM 55.4 °F 23.0 °F 29% 29.85 in 10.0 mi WNW 9.2 mph - N/A   Clear
3:15 AM 55.4 °F 23.0 °F 29% 29.85 in 10.0 mi West 8.1 mph - N/A   Clear
3:35 AM 55.4 °F 23.0 °F 29% 29.85 in 10.0 mi West 5.8 mph - N/A   Clear
3:55 AM 55.4 °F 23.0 °F 29% 29.84 in 10.0 mi West 4.6 mph - N/A   Clear
4:15 AM 53.6 °F 21.2 °F 28% 29.84 in 10.0 mi Calm Calm - N/A   Clear
4:35 AM 53.6 °F 19.4 °F 26% 29.84 in 10.0 mi WSW 4.6 mph - N/A   Clear
4:55 AM 53.6 °F 21.2 °F 28% 29.84 in 10.0 mi SW 3.5 mph - N/A   Clear
5:15 AM 53.6 °F 19.4 °F 26% 29.85 in 10.0 mi WSW 5.8 mph - N/A   Clear
5:35 AM 53.6 °F 19.4 °F 26% 29.85 in 10.0 mi WSW 3.5 mph - N/A   Clear
5:55 AM 53.6 °F 19.4 °F 26% 29.85 in 10.0 mi Calm Calm - N/A   Clear
6:15 AM 53.6 °F 19.4 °F 26% 29.86 in 10.0 mi Calm Calm - N/A   Clear
6:35 AM 55.4 °F 19.4 °F 25% 29.87 in 10.0 mi South 4.6 mph - N/A   Clear
6:55 AM 55.4 °F 21.2 °F 26% 29.87 in 10.0 mi SSE 9.2 mph - N/A   Clear
7:15 AM 57.2 °F 26.6 °F 31% 29.88 in 10.0 mi SSE 10.4 mph 16.1 mph N/A   Clear
7:35 AM 60.8 °F 26.6 °F 27% 29.89 in 10.0 mi South 8.1 mph - N/A   Clear
7:55 AM 60.8 °F 26.6 °F 27% 29.90 in 10.0 mi South 5.8 mph - N/A   Clear
8:15 AM 59.0 °F 26.6 °F 29% 29.90 in 10.0 mi SSW 8.1 mph - N/A   Clear
8:35 AM 59.0 °F 26.6 °F 29% 29.91 in 10.0 mi WSW 5.8 mph - N/A   Clear
8:55 AM 60.8 °F 26.6 °F 27% 29.91 in 10.0 mi West 6.9 mph - N/A   Clear
9:15 AM 59.0 °F 24.8 °F 27% 29.91 in 10.0 mi SW 6.9 mph - N/A   Clear
9:35 AM 60.8 °F 23.0 °F 23% 29.92 in 10.0 mi SW 5.8 mph - N/A   Clear
9:55 AM 62.6 °F 19.4 °F 19% 29.92 in 10.0 mi South 4.6 mph - N/A   Clear
10:15 AM 64.4 °F 19.4 °F 18% 29.92 in 10.0 mi South 8.1 mph - N/A   Clear
10:35 AM 62.6 °F 17.6 °F 18% 29.92 in 10.0 mi SSW 6.9 mph - N/A   Clear
10:55 AM 64.4 °F 15.8 °F 15% 29.93 in 10.0 mi SW 4.6 mph - N/A   Clear
11:15 AM 64.4 °F 17.6 °F 16% 29.93 in 10.0 mi WSW 6.9 mph - N/A   Clear
11:35 AM 64.4 °F 15.8 °F 15% 29.93 in 10.0 mi SW 8.1 mph - N/A   Clear
11:55 AM 68.0 °F 17.6 °F 15% 29.93 in 10.0 mi SSW 10.4 mph 18.4 mph N/A   Clear
12:15 PM 69.8 °F 17.6 °F 14% 29.93 in 10.0 mi West 6.9 mph - N/A   Clear
12:55 PM 69.8 °F 14.0 °F 12% 29.91 in 10.0 mi SW 10.4 mph 19.6 mph N/A   Clear
1:15 PM 69.8 °F 10.4 °F 10% 29.92 in 10.0 mi West 13.8 mph 20.7 mph N/A   Clear
1:35 PM 69.8 °F 10.4 °F 10% 29.93 in 10.0 mi West 11.5 mph 26.5 mph N/A   Clear
1:55 PM 71.6 °F 12.2 °F 10% 29.92 in 10.0 mi WSW 13.8 mph 20.7 mph N/A   Clear
2:15 PM 71.6 °F 12.2 °F 10% 29.92 in 10.0 mi West 9.2 mph 21.9 mph N/A   Clear
2:35 PM 71.6 °F 12.2 °F 10% 29.91 in 10.0 mi WSW 12.7 mph 20.7 mph N/A   Clear
2:55 PM 71.6 °F 12.2 °F 10% 29.91 in 10.0 mi WSW 11.5 mph 21.9 mph N/A   Clear
3:15 PM 71.6 °F 12.2 °F 10% 29.91 in 10.0 mi West 11.5 mph 16.1 mph N/A   Clear
3:35 PM 71.6 °F 12.2 °F 10% 29.90 in 10.0 mi WNW 16.1 mph 31.1 mph N/A   Clear
4:15 PM 71.6 °F 12.2 °F 10% 29.90 in 10.0 mi WNW 15.0 mph 24.2 mph N/A   Clear
4:35 PM 69.8 °F 12.2 °F 11% 29.91 in 10.0 mi NW 19.6 mph 26.5 mph N/A   Clear
4:55 PM 69.8 °F 12.2 °F 11% 29.91 in 10.0 mi WNW 11.5 mph 17.3 mph N/A   Clear
5:15 PM 69.8 °F 12.2 °F 11% 29.91 in 10.0 mi WNW 16.1 mph 25.3 mph N/A   Clear
5:35 PM 69.8 °F 10.4 °F 10% 29.91 in 10.0 mi NW 16.1 mph 20.7 mph N/A   Clear
5:55 PM 69.8 °F 10.4 °F 10% 29.91 in 10.0 mi NW 13.8 mph - N/A   Clear
6:15 PM 68.0 °F 10.4 °F 11% 29.92 in 10.0 mi NW 15.0 mph 21.9 mph N/A   Clear
6:35 PM 66.2 °F 10.4 °F 11% 29.92 in 10.0 mi WNW 13.8 mph 19.6 mph N/A   Clear
6:55 PM 64.4 °F 8.6 °F 11% 29.93 in 10.0 mi WNW 10.4 mph - N/A   Clear
7:15 PM 62.6 °F 8.6 °F 12% 29.93 in 10.0 mi NW 8.1 mph - N/A   Clear
7:35 PM 62.6 °F 10.4 °F 13% 29.94 in 10.0 mi NW 10.4 mph - N/A   Clear
7:55 PM 62.6 °F 10.4 °F 13% 29.94 in 10.0 mi NNW 9.2 mph - N/A   Clear
8:15 PM 62.6 °F 10.4 °F 13% 29.95 in 10.0 mi North 4.6 mph - N/A   Clear
8:35 PM 62.6 °F 10.4 °F 13% 29.96 in 10.0 mi Calm Calm - N/A   Clear
8:55 PM 60.8 °F 10.4 °F 14% 29.98 in 10.0 mi East 5.8 mph - N/A   Clear
9:35 PM 59.0 °F 10.4 °F 15% 29.99 in 10.0 mi NNE 9.2 mph - N/A   Clear
10:15 PM 59.0 °F 12.2 °F 16% 29.99 in 10.0 mi NE 10.4 mph - N/A   Clear
10:35 PM 59.0 °F 12.2 °F 16% 29.99 in 10.0 mi ENE 10.4 mph - N/A   Clear
10:55 PM 59.0 °F 12.2 °F 16% 30.00 in 10.0 mi East 9.2 mph - N/A   Clear
11:15 PM 57.2 °F 12.2 °F 17% 30.02 in 10.0 mi ENE 8.1 mph - N/A   Clear
11:35 PM 55.4 °F 12.2 °F 18% 30.02 in 10.0 mi Calm Calm - N/A   Clear
11:55 PM 55.4 °F 12.2 °F 18% 30.03 in 10.0 mi NE 6.9 mph - N/A   Clear